Regional Weather Roundup
Issued by NWS Sterling, VA

Home | Current Version | Previous Version | Graphics & Text | Print | Product List | Glossary On
Versions: 1 2 3 4 5 6 7 8 9 10 11 12 13 14 15 16 17 18 19 20 21 22 23 24 25 26 27
000
ASUS41 KLWX 230910
RWRLWX

REGIONAL WEATHER ROUNDUP
NATIONAL WEATHER SERVICE BALTIMORE MD/WASHINGTON DC
500 AM EDT WED APR 23 2014

Note: "FAIR" indicates few or no clouds below 12,000 feet
with no significant weather and/or obstructions to visibility.
 TC=TEMPERATURE CELSIUS

 * =Non NWS site. Station does not report precipitation (e.g. rain,
    snow, etc.), thunder, or fog.

DCZ001-MDZ009-015-VAZ040>042-051-053>054-231000-
WASHINGTON METRO

CITY           SKY/WX    TMP DP  RH WIND       PRES   REMARKS
WASHINGTON NAT CLEAR     54  32  43 NW15G25   29.73R
DULLES         PTCLDY    47  32  56 W6        29.74S
ANDREWS AFB    CLEAR     51  33  49 NW20G29   29.71R
FT BELVOIR     CLEAR     53  31  42 NW18G25   29.74R
QUANTICO       CLEAR     54  31  41 N20G26    29.72S
COLLEGE PARK*  CLEAR     52  32  46 NW7G18    29.73R
LEESBURG*      CLEAR     46  36  66 NW3       29.75S
MANASSAS*      CLEAR     52  34  50 NW9G20    29.75R
GAITHERSBURG*  CLEAR     46  32  57 W12G18    29.75S

$$

MDZ006>007-011-014-231000-
BALTIMORE METRO

CITY           SKY/WX    TMP DP  RH WIND       PRES   REMARKS
BWI AIRPORT    PTCLDY    48  34  58 W10       29.70R
MD SCIENCE CTR   N/A     51  34  52 MISG      29.71R
MARTIN STATE   CLEAR     50  36  57 W20       29.70R
ANNAPOLIS      CLEAR     53  35  50 NW12G18   29.68S
FORT MEADE*    CLEAR     46  34  61 W9        29.74R

$$

MDZ012-015-019>023-231000-
MARYLAND EASTERN SHORE

CITY           SKY/WX    TMP DP  RH WIND       PRES   REMARKS
OCEAN CITY     CLOUDY    55  35  47 NW20G29   29.64R
SALISBURY      CLOUDY    56  34  43 NW18G31   29.66R
BAY BRIDGE AP* CLEAR     52  34  50 NW21G28   29.68F
CAMBRIDGE*     PTCLDY    55  36  47 NW9G21    29.68S
EASTON*        PTCLDY    53  37  55 NW15G23   29.72S

$$

MDZ017>025-231000-
SOUTHERN MARYLAND

CITY           SKY/WX    TMP DP  RH WIND       PRES   REMARKS
PATUXENT RIVER MOCLDY    53  35  50 NW15      29.69R
ST INIGOES     MOCLDY    55  35  47 NW8G22    29.69R
LEONARDTOWN*   MOCLDY    52  34  50 NW5       29.71S

$$

MDZ003>005-231000-
NORTH CENTRAL MARYLAND

CITY           SKY/WX    TMP DP  RH WIND       PRES   REMARKS
FREDERICK*     PTCLDY    45  37  76 CALM      29.75S
HAGERSTOWN APT MOCLDY    46  34  62 W20       29.73R
WESTMINSTER*   CLEAR     46  36  66 W9        29.70S

$$

MDZ501>502-231000-
WESTERN MARYLAND

CITY           SKY/WX    TMP DP  RH WIND       PRES   REMARKS
OAKLAND*       CLOUDY    34  30  86 W13G25    29.76R WCI  25
CUMBERLAND*    CLOUDY    48  32  53 NW13G18   29.82R

$$

VAZ025>031-231000-
SHENANDOAH VALLEY

CITY           SKY/WX    TMP DP  RH WIND       PRES   REMARKS
WINCHESTER*    PTCLDY    46  32  57 NW9G16    29.76R
STAUNTON*      CLEAR     51  31  46 NW10G16   29.77R

$$

WVZ021-048>050-054>055-231000-
EASTERN WEST VIRGINIA PANHANDLE

CITY           SKY/WX    TMP DP  RH WIND       PRES   REMARKS
MARTINSBURG    PTCLDY    48  32  53 N6G16     29.75R
PETERSBURG*    CLEAR     53  36  53 NW14G20   29.80R

$$

VAZ036>039-050-231000-
CENTRAL FOOTHILLS

CITY           SKY/WX    TMP DP  RH WIND       PRES   REMARKS
CHARLOTTESVILL CLEAR     52  38  58 VRB3      29.72R
CULPEPER*      CLEAR     52  34  50 N6        29.75R

$$

VAZ055>057-231000-
NORTH AND CENTRAL PIEDMONT

CITY           SKY/WX    TMP DP  RH WIND       PRES   REMARKS
FREDERICKSBRG* CLEAR     54  37  52 NW8       29.71S
STAFFORD*      CLEAR     52  36  53 NW15G24   29.75F

$$

NCZ024-NYZ072-PAZ021-071-VAZ022-071-231000-
OTHER REGIONAL OBSERVATIONS

CITY           SKY/WX    TMP DP  RH WIND       PRES   REMARKS
NEW YORK CITY  CLOUDY    55  42  61 VRB6      29.54R
PHILADELPHIA   PTCLDY    50  31  48 NW13      29.65R
PITTSBURGH     CLOUDY    40  33  76 NW14G21   29.85S
ROANOKE        CLEAR     52  30  43 W10       29.80R
RICHMOND       PTCLDY    56  40  55 N15       29.71R
RALEIGH        PTCLDY    58  53  84 CALM      29.72R

$$

ANZ530>537-231000-
MARINE OBSERVATIONS

STATION/POSITION TIME  TEMP    WIND        PRES
                       AIR SEA DIR/SP/G
                 (UTC) (F)     (DEG/KT/KT) (MB)
THOMAS PT LIGHT  0900   53 54  310/ 18/ 20 1005.5F
BALT KEY BRIDGE  0900   52     290/ 24/ 27 1005.5R
COVE POINT       0900   54     350/ 17/ 19 1005.2R
LEWISETTA        0900   56 58  340/ 13/ 18 1005.3F
SOLOMONS ISLAND  0900      56                N/A
PINEY POINT      0900          340/ 18/ 21   N/A

$$




USA.gov is the U.S. government's official web portal to all federal, state and local government web resources and services.